Location: Unspecified
(49.2170°N, 0.0000°E)
Time: 21:21:46
(UTC+00:00)

Explorer 7 - Visible Passes

Search period start: 21 January 2021 00:00
Search period end: 31 January 2021 00:00
Orbit: 484 x 678 km, 50.3° (Epoch: 21 January)

Date Brightness Start Highest point End Pass type
(mag) Time Alt. Az. Time Alt. Az. Time Alt. Az.
21 Jan 8.0 05:56:45 13° SW 05:59:58 38° SSE 06:03:48 10° E visible
22 Jan 9.6 04:25:21 13° SE 04:25:21 13° SE 04:26:40 10° ESE visible
22 Jan 7.4 06:01:40 17° SW 06:04:26 53° SSE 06:08:27 10° ENE visible
23 Jan 9.3 04:30:07 18° ESE 04:30:07 18° ESE 04:31:56 10° E visible
23 Jan 6.9 06:06:26 21° WSW 06:08:56 70° SSE 06:13:02 10° ENE visible
24 Jan 9.0 04:34:45 23° ESE 04:34:45 23° ESE 04:36:48 10° E visible
24 Jan 6.7 06:11:04 22° WSW 06:13:29 86° SSE 06:17:38 10° ENE visible
25 Jan 8.7 04:39:18 27° E 04:39:18 27° E 04:41:31 10° E visible
25 Jan 6.7 06:15:36 22° W 06:18:05 82° N 06:22:14 10° E visible
26 Jan 8.4 04:43:46 32° E 04:43:46 32° E 04:46:09 10° ENE visible
26 Jan 6.7 06:20:04 20° W 06:22:40 76° N 06:26:50 10° E visible
27 Jan 8.1 04:48:12 37° E 04:48:12 37° E 04:50:45 10° ENE visible
27 Jan 6.7 06:24:29 18° W 06:27:17 75° N 06:31:27 10° E visible
28 Jan 7.9 04:52:34 42° ENE 04:52:34 42° ENE 04:55:20 10° ENE visible
28 Jan 6.7 06:28:52 16° W 06:31:54 79° N 06:36:04 10° E visible
29 Jan 7.6 04:56:56 47° ENE 04:56:56 47° ENE 04:59:55 10° E visible
29 Jan 6.7 06:33:13 15° WNW 06:36:30 88° NNE 06:40:40 10° ESE visible
30 Jan 7.3 05:01:16 54° ENE 05:01:16 54° ENE 05:04:31 10° E visible
30 Jan 6.8 06:37:34 13° WNW 06:41:04 78° SSW 06:45:13 10° ESE visible
